Location: Unspecified
(0.0000°N, 0.0000°E)
Time: 04:55:06
(UTC+00:00)

CZ-4C DEB - Pass Details

Date: 17 March 2026
Orbit: 805 x 1381 km, 63.4° (Epoch: 15 April)

Event Time Altitude Azimuth Distance (km) Brightness Sun altitude
Rises 20:09:11 0° 311° (NW) 4,294 ? -30.2°
Reaches altitude 10° 20:12:32 10° 299° (WNW) 3,379 ? -31.1°
Maximum altitude 20:19:11 26° 246° (WSW) 2,410 ? -32.7°
Drops below altitude 10° 20:26:00 10° 193° (SSW) 3,435 ? -34.4°
Sets 20:29:29 0° 181° (S) 4,377 ? -35.3°
